TimeCDT,TemperatureF,Dew PointF,Humidity,Sea Level PressureIn,VisibilityMPH,Wind Direction,Wind SpeedMPH,Gust SpeedMPH,PrecipitationIn,Events,Conditions,WindDirDegrees,DateUTC
12:53 AM,41.0,36.0,82,29.97,10.0,WNW,10.4,-,N/A,,Clear,290,2012-04-16 05:53:00
1:53 AM,39.9,36.0,86,30.00,10.0,WNW,10.4,-,N/A,,Clear,290,2012-04-16 06:53:00
2:53 AM,39.0,35.1,86,30.01,10.0,WNW,13.8,-,N/A,,Clear,290,2012-04-16 07:53:00
3:53 AM,39.0,35.1,86,30.03,10.0,West,9.2,-,N/A,,Clear,270,2012-04-16 08:53:00
4:53 AM,39.0,35.1,86,30.05,10.0,WNW,11.5,-,N/A,,Clear,290,2012-04-16 09:53:00
5:53 AM,37.9,34.0,86,30.09,10.0,West,6.9,-,N/A,,Clear,260,2012-04-16 10:53:00
6:53 AM,37.0,33.1,86,30.11,10.0,WNW,10.4,-,N/A,,Clear,290,2012-04-16 11:53:00
7:53 AM,37.9,34.0,86,30.13,10.0,WSW,5.8,-,N/A,,Clear,240,2012-04-16 12:53:00
8:53 AM,43.0,36.0,76,30.17,10.0,WNW,8.1,-,N/A,,Mostly Cloudy,300,2012-04-16 13:53:00
9:53 AM,46.9,32.0,56,30.18,10.0,North,8.1,-,N/A,,Overcast,10,2012-04-16 14:53:00
10:53 AM,50.0,30.9,48,30.18,10.0,NE,10.4,-,N/A,,Scattered Clouds,40,2012-04-16 15:53:00
11:53 AM,51.1,32.0,48,30.21,10.0,North,9.2,-,N/A,,Overcast,350,2012-04-16 16:53:00
12:53 PM,51.1,32.0,48,30.23,10.0,North,5.8,-,N/A,,Mostly Cloudy,10,2012-04-16 17:53:00
1:53 PM,51.1,32.0,48,30.22,10.0,Calm,Calm,-,N/A,,Overcast,0,2012-04-16 18:53:00
2:53 PM,54.0,35.1,49,30.19,10.0,Variable,6.9,-,N/A,,Scattered Clouds,0,2012-04-16 19:53:00
3:08 PM,55.4,35.6,47,30.17,10.0,Calm,Calm,-,N/A,,Scattered Clouds,0,2012-04-16 20:08:00
3:53 PM,55.9,36.0,47,30.18,10.0,WSW,5.8,-,N/A,,Partly Cloudy,240,2012-04-16 20:53:00
4:53 PM,55.9,36.0,47,30.17,10.0,SSE,5.8,-,N/A,,Mostly Cloudy,150,2012-04-16 21:53:00
5:53 PM,57.0,37.9,49,30.17,10.0,SW,3.5,-,N/A,,Scattered Clouds,220,2012-04-16 22:53:00
6:53 PM,55.9,39.9,55,30.18,10.0,South,8.1,-,N/A,,Mostly Cloudy,180,2012-04-16 23:53:00
7:53 PM,53.1,39.9,61,30.18,10.0,South,9.2,-,N/A,,Mostly Cloudy,180,2012-04-17 00:53:00
8:53 PM,46.9,39.0,74,30.19,10.0,South,4.6,-,N/A,,Clear,190,2012-04-17 01:53:00
9:53 PM,45.0,39.0,80,30.20,10.0,South,5.8,-,N/A,,Clear,180,2012-04-17 02:53:00
10:53 PM,43.0,37.9,82,30.20,10.0,South,4.6,-,N/A,,Clear,180,2012-04-17 03:53:00
11:53 PM,43.0,37.0,80,30.19,10.0,South,4.6,-,N/A,,Clear,170,2012-04-17 04:53:00